Temp
-12 -12 -12 -12 -12 -12 -12 -12 -11 -12 -12 -12 -11 -10 -10 -11 -11 -10 -9 -9 -9 -9 -9 -9 -9 -9 -9 -9 -9 -9 -9 -10 -10 -10 -10 -10 -10 -10 -11 -11 -12 -12 -12 -12
-13 -12 -12 -12 -12 -13 -12 -12 -12 -12 -12 -12 -11 -11 -10 -10 -10 -10 -10 -10 -9 -9 -9 -9 -9 -8 -8 -9 -9 -9 -10 -10 -10 -10 -10 -10 -10 -11 -11 -12 -12 -11 -12 -13
-20 -16 -17 -15 -13 -13 -13 -12 -12 -12 -12 -12 -12 -11 -11 -10 -10 -10 -9 -9 -10 -9 -9 -9 -9 -9 -8 -8 -9 -9 -9 -10 -10 -10 -10 -10 -11 -11 -11 -12 -11 -11 -12 -12
-22 -21 -21 -20 -18 -16 -16 -15 -13 -13 -13 -12 -12 -11 -11 -10 -9 -9 -9 -10 -9 -9 -8 -9 -9 -8 -8 -8 -8 -8 -9 -9 -9 -10 -10 -11 -11 -11 -11 -11 -12 -12 -12 -12
-22 -22 -23 -23 -23 -21 -19 -18 -16 -15 -14 -13 -12 -12 -9 -10 -9 -9 -10 -10 -10 -9 -9 -8 -8 -8 -8 -8 -8 -9 -9 -9 -9 -10 -10 -10 -11 -11 -11 -12 -12 -12 -12 -12
-22 -22 -23 -24 -24 -24 -23 -21 -19 -17 -15 -13 -12 -12 -10 -10 -10 -10 -10 -10 -9 -9 -9 -9 -9 -9 -9 -8 -9 -9 -9 -10 -10 -10 -10 -10 -10 -11 -11 -12 -12 -13 -12 -12
-22 -22 -23 -23 -24 -24 -24 -23 -21 -20 -17 -12 -12 -13 -10 -10 -10 -10 -10 -10 -10 -9 -9 -9 -9 -9 -9 -9 -10 -10 -10 -10 -10 -10 -10 -10 -11 -11 -12 -12 -12 -12 -12 -12
-22 -22 -22 -23 -23 -24 -23 -23 -23 -20 -18 -12 -14 -12 -11 -10 -11 -10 -10 -10 -10 -9 -10 -9 -9 -9 -9 -9 -10 -9 -10 -10 -10 -10 -10 -11 -11 -11 -11 -11 -12 -12 -12 -12
-23 -23 -23 -23 -24 -24 -23 -23 -22 -22 -18 -15 -13 -11 -11 -10 -12 -11 -11 -10 -10 -10 -10 -9 -9 -9 -10 -9 -9 -10 -9 -9 -10 -10 -11 -11 -11 -11 -11 -11 -11 -12 -12 -12
-23 -23 -23 -23 -23 -23 -23 -23 -23 -22 -19 -16 -13 -12 -11 -11 -12 -11 -11 -11 -11 -10 -9 -10 -10 -10 -9 -10 -10 -10 -10 -10 -11 -11 -11 -11 -11 -11 -11 -11 -11 -11 -12 -12
-24 -23 -23 -23 -23 -22 -22 -22 -23 -23 -19 -17 -14 -12 -12 -11 -11 -11 -11 -10 -11 -10 -10 -10 -10 -10 -10 -10 -10 -10 -10 -10 -11 -11 -11 -11 -11 -11 -11 -11 -11 -12 -12 -11
-24 -23 -23 -23 -23 -23 -22 -22 -22 -22 -20 -17 -14 -13 -12 -12 -11 -12 -11 -10 -11 -11 -10 -10 -10 -10 -10 -10 -10 -11 -10 -11 -11 -11 -11 -11 -11 -11 -11 -11 -11 -12 -11 -11
-24 -24 -23 -23 -23 -23 -22 -22 -22 -22 -20 -17 -16 -14 -13 -12 -12 -12 -11 -11 -11 -11 -10 -10 -10 -10 -10 -11 -11 -11 -11 -11 -10 -11 -11 -11 -11 -11 -12 -12 -12 -12 -11 -12
-24 -24 -24 -23 -23 -23 -23 -22 -22 -22 -20 -18 -15 -15 -15 -13 -11 -12 -12 -11 -11 -11 -11 -11 -11 -11 -11 -11 -11 -11 -11 -11 -11 -11 -11 -11 -11 -11 -11 -12 -12 -11 -11 -12
-24 -24 -24 -23 -23 -23 -22 -22 -22 -22 -21 -18 -17 -15 -14 -13 -12 -12 -12 -12 -11 -11 -11 -11 -11 -11 -11 -11 -11 -11 -11 -11 -11 -11 -11 -11 -11 -11 -11 -11 -11 -12 -12 -12
-24 -24 -24 -23 -23 -23 -22 -22 -22 -21 -20 -18 -16 -15 -15 -14 -13 -12 -12 -12 -12 -11 -11 -11 -12 -12 -12 -11 -11 -11 -11 -11 -11 -11 -10 -11 -11 -11 -11 -11 -12 -12 -12 -12
-23 -24 -23 -23 -23 -23 -23 -23 -23 -22 -20 -18 -15 -14 -16 -15 -15 -13 -12 -12 -12 -11 -11 -11 -12 -12 -12 -12 -11 -11 -11 -11 -11 -11 -11 -11 -11 -11 -11 -11 -12 -12 -12 -12
-22 -22 -22 -22 -23 -22 -22 -22 -22 -22 -20 -18 -16 -14 -15 -14 -14 -13 -13 -13 -12 -11 -11 -12 -11 -12 -12 -12 -11 -11 -11 -11 -11 -11 -11 -11 -11 -11 -11 -12 -12 -12 -12 -12
-22 -22 -22 -22 -22 -22 -22 -22 -21 -21 -20 -18 -16 -15 -15 -14 -14 -13 -13 -13 -12 -12 -12 -12 -11 -11 -11 -11 -11 -11 -11 -11 -11 -11 -11 -11 -11 -11 -11 -11 -12 -12 -12 -12
-22 -22 -22 -22 -22 -21 -21 -21 -21 -21 -19 -18 -17 -15 -15 -13 -13 -13 -13 -13 -12 -12 -12 -12 -12 -11 -11 -11 -11 -11 -11 -11 -11 -11 -11 -11 -11 -11 -11 -12 -12 -12 -12 -12
-21 -21 -21 -22 -21 -21 -20 -21 -21 -20 -19 -18 -16 -14 -14 -13 -13 -13 -13 -13 -12 -13 -12 -12 -12 -11 -11 -11 -11 -11 -11 -11 -11 -11 -11 -11 -11 -11 -11 -12 -12 -12 -12 -12
-21 -21 -21 -21 -21 -20 -20 -20 -20 -20 -19 -18 -15 -14 -15 -13 -13 -13 -13 -13 -13 -12 -12 -12 -13 -11 -11 -11 -11 -11 -11 -11 -12 -12 -12 -12 -12 -12 -12 -12 -12 -12 -12 -12
-21 -21 -21 -21 -21 -20 -20 -19 -19 -20 -18 -17 -14 -14 -14 -14 -13 -13 -13 -13 -13 -12 -12 -13 -13 -12 -11 -11 -11 -12 -12 -12 -12 -12 -12 -13 -12 -12 -12 -13 -12 -12 -12 -12
-20 -20 -20 -20 -20 -19 -19 -19 -19 -18 -17 -15 -15 -15 -15 -14 -14 -14 -13 -13 -13 -13 -13 -13 -13 -12 -12 -11 -12 -12 -12 -12 -12 -12 -13 -13 -13 -13 -13 -13 -12 -12 -12 -12
-20 -20 -20 -20 -19 -19 -19 -18 -19 -19 -17 -16 -15 -15 -14 -14 -14 -14 -13 -13 -13 -13 -13 -14 -12 -12 -12 -12 -12 -12 -12 -12 -12 -12 -13 -13 -13 -13 -13 -13 -13 -13 -13 -12
-20 -20 -20 -19 -19 -19 -19 -18 -19 -18 -17 -15 -15 -14 -14 -13 -13 -13 -13 -13 -13 -13 -13 -14 -13 -12 -12 -12 -12 -12 -12 -12 -12 -12 -13 -13 -13 -13 -13 -13 -13 -13 -13 -12
Height
5663 5667 5679 5676 5679 5689 5687 5692 5699 5704 5711 5715 5724 5734 5743 5749 5757 5763 5767 5774 5780 5784 5789 5790 5793 5793 5792 5792 5794 5794 5795 5792 5792 5791 5792 5792 5790 5789 5788 5784 5781 5780 5778 5775
5634 5645 5648 5649 5655 5663 5668 5673 5682 5689 5697 5703 5707 5717 5726 5735 5744 5749 5756 5762 5767 5773 5777 5778 5779 5780 5781 5782 5783 5785 5784 5783 5783 5785 5785 5785 5783 5782 5779 5776 5774 5771 5769 5766
5608 5620 5617 5621 5629 5639 5646 5654 5665 5673 5679 5686 5693 5701 5713 5724 5730 5739 5743 5750 5757 5763 5766 5768 5770 5769 5770 5772 5774 5775 5773 5774 5776 5777 5778 5778 5776 5774 5771 5768 5766 5763 5762 5762
5602 5603 5599 5601 5604 5613 5621 5634 5646 5656 5664 5673 5682 5686 5697 5714 5721 5728 5735 5740 5747 5751 5754 5757 5757 5758 5760 5762 5761 5762 5765 5768 5769 5770 5771 5770 5769 5766 5763 5761 5760 5758 5757 5756
5597 5590 5585 5585 5589 5596 5604 5613 5628 5638 5647 5656 5674 5669 5700 5705 5714 5721 5726 5732 5735 5738 5741 5744 5747 5750 5750 5752 5753 5757 5760 5761 5762 5764 5764 5763 5760 5758 5756 5755 5754 5753 5751 5750
5584 5580 5578 5580 5584 5586 5594 5603 5614 5623 5632 5639 5667 5662 5691 5700 5709 5712 5716 5719 5724 5728 5731 5734 5738 5740 5742 5744 5747 5750 5752 5754 5756 5756 5757 5754 5753 5752 5750 5749 5748 5747 5745 5744
5578 5575 5575 5576 5577 5580 5585 5590 5601 5609 5615 5639 5650 5650 5687 5693 5697 5701 5705 5710 5715 5718 5721 5725 5729 5733 5736 5738 5741 5743 5745 5747 5748 5750 5748 5747 5746 5746 5745 5743 5742 5741 5739 5738
5572 5570 5570 5571 5571 5576 5580 5584 5593 5600 5609 5638 5634 5649 5677 5685 5687 5688 5694 5701 5706 5707 5713 5720 5725 5727 5730 5732 5735 5737 5739 5740 5741 5740 5740 5741 5741 5740 5739 5737 5736 5735 5733 5731
5568 5568 5566 5564 5564 5570 5575 5575 5589 5595 5605 5617 5628 5655 5666 5674 5679 5681 5687 5692 5696 5703 5710 5716 5719 5721 5723 5727 5730 5731 5732 5732 5733 5733 5734 5735 5735 5735 5734 5732 5730 5729 5728 5726
5567 5565 5564 5562 5562 5566 5571 5577 5580 5585 5598 5610 5628 5643 5653 5660 5672 5678 5681 5688 5693 5698 5704 5708 5711 5715 5719 5722 5724 5725 5725 5726 5727 5728 5730 5730 5730 5729 5728 5726 5725 5724 5722 5720
5565 5564 5563 5561 5562 5565 5568 5571 5576 5582 5594 5603 5617 5632 5641 5647 5662 5667 5675 5683 5689 5692 5697 5701 5706 5711 5714 5716 5718 5719 5720 5721 5722 5724 5725 5725 5724 5724 5723 5722 5721 5719 5717 5716
5563 5562 5561 5561 5561 5562 5565 5569 5573 5576 5588 5596 5606 5622 5630 5640 5655 5662 5669 5677 5683 5687 5693 5699 5703 5707 5709 5711 5714 5715 5716 5717 5718 5719 5719 5719 5719 5719 5718 5717 5715 5713 5712 5712
5560 5559 5559 5561 5562 5562 5564 5567 5569 5573 5579 5585 5598 5613 5621 5632 5646 5657 5664 5672 5678 5683 5689 5694 5698 5702 5705 5707 5709 5711 5712 5713 5714 5714 5715 5715 5714 5713 5711 5710 5710 5709 5709 5708
5554 5555 5556 5557 5558 5559 5560 5563 5565 5567 5571 5580 5589 5604 5614 5625 5636 5649 5657 5666 5672 5679 5685 5690 5694 5697 5700 5704 5705 5706 5707 5709 5710 5710 5711 5710 5709 5708 5707 5706 5706 5705 5705 5705
5548 5548 5550 5551 5552 5553 5555 5558 5559 5560 5565 5571 5584 5599 5610 5619 5630 5641 5651 5660 5667 5675 5682 5686 5691 5694 5697 5699 5702 5703 5704 5706 5706 5707 5707 5706 5705 5704 5702 5702 5701 5701 5701 5702
5541 5541 5543 5545 5547 5547 5549 5552 5554 5556 5560 5563 5573 5592 5604 5613 5622 5632 5644 5655 5663 5672 5679 5683 5687 5691 5693 5696 5697 5699 5701 5702 5703 5704 5703 5703 5701 5700 5699 5699 5698 5698 5699 5700
5536 5537 5538 5540 5541 5542 5544 5548 5547 5548 5552 5557 5564 5589 5597 5606 5617 5628 5639 5650 5660 5668 5674 5679 5682 5686 5690 5692 5694 5695 5698 5699 5700 5700 5700 5699 5698 5697 5696 5696 5695 5696 5697 5698
5536 5535 5535 5537 5537 5538 5541 5541 5539 5540 5544 5550 5558 5583 5593 5604 5615 5626 5637 5647 5657 5664 5670 5676 5679 5683 5686 5689 5691 5693 5695 5696 5697 5697 5697 5696 5696 5694 5694 5693 5694 5694 5696 5697
5536 5535 5535 5535 5534 5536 5536 5535 5534 5534 5540 5543 5556 5577 5591 5602 5613 5625 5635 5645 5654 5660 5666 5672 5676 5679 5683 5686 5689 5690 5691 5693 5694 5695 5694 5694 5693 5693 5692 5692 5693 5693 5694 5695
5536 5536 5536 5534 5533 5532 5531 5529 5528 5529 5537 5541 5555 5573 5588 5599 5613 5622 5632 5641 5650 5657 5664 5670 5675 5679 5681 5684 5686 5688 5689 5691 5692 5692 5693 5692 5692 5691 5691 5692 5692 5693 5694 5695
5538 5536 5535 5533 5531 5530 5529 5529 5529 5531 5539 5540 5555 5570 5585 5601 5609 5620 5631 5639 5648 5655 5663 5669 5673 5676 5679 5682 5684 5686 5688 5689 5690 5691 5691 5691 5690 5689 5689 5690 5691 5692 5693 5695
5540 5537 5535 5532 5530 5528 5527 5526 5526 5528 5531 5539 5557 5568 5581 5597 5607 5618 5627 5638 5644 5655 5663 5668 5673 5676 5678 5680 5682 5684 5686 5687 5688 5690 5690 5690 5688 5688 5687 5688 5690 5691 5692 5694
5542 5540 5537 5536 5534 5530 5527 5524 5524 5526 5531 5542 5557 5568 5583 5596 5606 5615 5626 5637 5646 5655 5661 5666 5671 5675 5677 5679 5681 5682 5684 5686 5688 5689 5689 5689 5688 5687 5686 5687 5689 5690 5692 5694
5544 5542 5539 5537 5534 5530 5527 5524 5526 5527 5535 5547 5556 5568 5583 5595 5605 5615 5625 5637 5645 5652 5659 5664 5670 5673 5676 5678 5680 5682 5684 5686 5687 5688 5689 5689 5688 5686 5686 5686 5688 5689 5691 5693
5544 5541 5539 5537 5534 5532 5530 5527 5529 5532 5539 5548 5560 5572 5583 5593 5603 5616 5627 5636 5643 5649 5655 5661 5666 5671 5675 5677 5679 5681 5684 5686 5687 5688 5689 5690 5689 5688 5687 5687 5687 5689 5691 5694
5544 5540 5538 5535 5534 5532 5532 5531 5534 5537 5546 5555 5564 5575 5584 5593 5605 5617 5626 5634 5642 5648 5652 5659 5663 5670 5675 5676 5678 5681 5683 5686 5687 5688 5689 5690 5690 5689 5688 5688 5690 5691 5693 5695
Wind_Speed
72 71 67 68 69 67 69 68 67 68 66 67 66 65 61 69 71 64 64 64 58 54 50 50 44 46 48 49 51 50 50 55 50 46 43 41 44 45 44 39 35 36 35 34
72 75 74 75 70 69 73 73 71 69 67 67 66 62 62 62 59 61 62 59 56 49 46 46 44 45 47 46 48 49 50 49 47 42 41 43 44 45 43 38 33 32 32 33
47 57 59 69 71 70 74 76 74 72 70 67 67 64 59 56 57 55 53 52 51 45 40 41 42 45 44 43 43 46 49 48 45 41 42 41 42 38 36 32 28 29 28 25
29 28 37 46 63 69 73 75 76 75 73 69 67 66 62 54 51 51 44 41 40 39 40 40 43 43 42 43 45 48 47 44 39 40 39 39 37 31 27 25 24 22 24 27
25 30 26 34 46 56 67 72 75 75 75 73 65 69 51 50 44 39 35 32 33 36 38 40 40 41 43 44 41 37 35 35 36 37 37 34 27 25 24 23 22 23 27 27
26 25 27 21 29 37 47 62 69 72 74 76 61 66 49 41 37 35 34 34 33 34 37 38 40 41 38 34 31 31 31 31 35 34 34 25 23 24 25 23 23 26 30 29
17 17 22 24 25 30 35 43 59 67 73 68 65 66 41 35 36 37 38 37 36 36 38 37 33 29 27 25 28 29 32 33 32 32 24 22 23 25 25 23 24 28 28 27
15 18 16 24 28 26 25 34 37 59 66 62 66 59 39 37 22 33 40 39 35 42 35 31 24 21 22 24 25 27 29 29 30 23 20 21 23 23 22 22 24 24 24 22
11 8 12 12 18 25 21 31 34 36 55 66 63 47 45 41 29 14 18 33 42 36 27 20 21 23 24 23 23 24 26 27 22 18 19 21 22 21 21 22 21 21 22 23
11 9 9 14 12 22 24 22 32 38 45 58 57 48 45 47 40 40 35 23 18 25 23 21 24 23 20 20 20 22 21 18 17 19 21 21 20 19 19 18 19 20 24 24
11 8 9 13 11 22 22 24 29 35 42 49 55 50 50 49 35 42 32 33 22 24 24 26 21 20 19 17 18 17 17 17 17 19 18 17 17 18 18 17 19 22 19 16
10 9 8 10 12 10 11 25 21 35 41 47 53 51 52 49 38 32 27 28 24 25 25 21 18 18 16 17 17 18 17 14 16 16 14 15 15 17 18 19 20 18 17 15
13 12 14 12 12 16 17 21 22 31 42 52 50 47 42 48 44 36 33 29 27 25 22 16 16 16 16 16 16 16 15 14 14 13 13 12 15 15 16 17 18 15 15 15
19 17 15 14 17 17 16 20 23 28 40 50 54 44 31 40 43 44 38 34 26 24 18 17 17 17 15 15 16 15 13 13 12 12 11 12 13 13 14 14 14 16 16 15
21 21 21 18 17 17 19 19 24 27 32 48 52 43 35 31 37 49 44 37 31 25 22 21 20 19 16 13 12 12 12 11 11 11 10 11 12 14 16 17 17 17 15 14
25 23 19 23 18 20 17 18 22 26 28 48 55 50 41 44 45 51 52 41 35 31 26 26 23 19 16 15 13 9 10 10 11 10 9 11 11 10 10 10 12 11 11 11
15 18 17 18 20 18 17 15 19 26 32 45 60 56 46 47 46 55 52 47 41 34 31 28 27 21 17 13 10 10 11 10 10 9 8 7 7 6 6 6 6 9 9 7
7 5 11 13 19 21 15 18 27 29 34 45 57 55 49 48 51 52 49 45 42 37 32 30 25 20 15 11 11 12 9 10 9 7 7 6 5 4 6 5 5 6 6 6
7 5 10 12 16 17 19 17 19 27 29 44 51 52 54 52 53 51 50 45 40 38 35 30 25 22 17 12 13 10 10 9 7 7 6 5 4 6 6 5 7 7 6 7
7 9 8 10 11 11 6 8 10 17 22 40 43 52 56 54 53 53 49 45 42 37 33 28 26 21 17 14 12 9 11 9 7 7 7 5 4 6 7 6 7 7 7 7
11 13 9 11 15 19 8 5 4 8 16 27 42 50 61 56 54 56 51 45 40 38 31 28 26 22 16 14 11 11 11 9 8 7 6 4 4 5 6 7 5 5 8 9
11 11 11 16 21 22 16 12 10 8 13 24 44 53 60 58 55 60 54 45 43 36 29 27 23 19 17 14 12 12 11 8 7 7 5 3 1 0 3 6 7 3 7 11
12 12 11 11 12 11 9 12 4 6 16 27 49 53 61 62 54 54 49 47 41 35 31 25 22 19 17 14 14 13 11 9 8 8 6 5 5 4 2 4 6 7 9 12
8 11 10 11 13 11 4 6 10 19 23 38 48 46 63 63 60 57 52 45 41 34 30 25 22 19 18 16 15 13 11 9 8 8 7 6 7 7 5 3 5 5 11 15
9 10 9 12 12 8 14 17 6 24 30 35 36 56 63 67 64 59 51 44 37 34 37 31 28 22 20 17 16 15 12 10 9 8 9 7 7 7 7 6 6 9 12 17
13 12 10 8 12 10 11 12 23 31 27 30 39 56 62 51 47 48 46 44 34 32 30 30 21 23 20 17 17 15 13 10 10 9 10 10 9 9 9 9 7 9 14 15
Wind_Direction
257 255 251 250 249 245 245 246 245 244 245 246 247 249 247 245 246 245 246 250 254 260 259 260 254 258 260 258 258 263 267 271 275 274 279 282 280 284 286 284 280 284 287 283
265 256 253 252 247 242 239 241 242 244 244 245 247 246 246 246 247 251 250 249 255 255 259 257 255 255 257 258 257 261 264 270 271 273 277 279 284 285 283 280 283 284 280 275
275 263 254 246 241 236 237 235 237 240 241 242 244 244 246 246 248 249 249 246 248 255 255 252 253 254 257 259 258 257 260 264 266 271 275 280 282 282 280 277 277 278 281 280
284 283 263 247 235 229 228 231 231 235 237 239 241 244 241 244 247 249 250 252 256 255 254 251 251 254 257 257 256 254 258 263 267 270 276 275 278 281 271 272 280 281 284 285
291 288 257 240 238 234 229 227 227 229 232 235 237 244 237 243 245 250 253 250 247 242 241 245 250 254 256 257 259 261 260 261 267 270 272 276 278 272 271 275 281 285 286 287
289 270 250 251 244 244 239 234 229 227 228 231 232 240 233 240 244 244 241 239 239 242 245 247 248 251 256 263 259 256 261 263 264 270 272 272 269 270 271 276 279 287 286 287
298 280 252 251 241 243 242 238 233 229 228 225 229 235 228 236 239 234 232 236 236 239 240 244 248 254 250 245 252 257 259 263 264 266 265 265 266 267 271 275 282 285 284 282
287 302 249 258 254 235 245 249 231 232 229 220 228 230 219 223 237 231 229 229 232 235 240 246 256 246 241 246 252 256 259 259 257 257 258 259 265 267 270 276 282 281 280 282
320 306 274 281 239 216 231 230 233 226 227 223 228 224 218 213 199 161 194 219 226 232 241 245 231 234 237 240 248 253 254 254 251 245 249 257 265 266 270 276 278 273 276 277
304 287 218 223 229 210 217 227 215 218 219 222 217 218 215 219 214 223 224 227 235 220 226 221 218 228 232 238 243 245 251 241 239 243 250 259 263 267 272 269 272 275 279 278
287 288 262 270 206 211 220 208 215 211 214 214 211 211 212 223 210 217 222 219 215 200 207 214 215 224 225 228 231 238 232 232 241 250 257 265 265 265 262 268 272 275 274 268
256 259 248 251 274 277 220 213 218 214 203 210 206 207 213 216 213 206 193 187 199 201 203 203 208 211 216 223 230 235 234 233 242 250 259 261 257 262 268 270 269 274 276 264
277 257 243 247 249 244 242 237 233 222 209 200 202 195 208 213 203 194 189 186 192 197 188 191 195 200 211 225 226 225 226 232 249 258 250 250 266 278 278 270 269 265 270 261
271 268 260 250 242 241 251 239 232 233 219 205 200 192 191 204 202 187 192 186 188 186 193 193 194 198 206 214 215 217 229 242 250 240 238 258 269 274 275 274 268 265 261 254
258 268 264 263 256 252 247 253 240 235 227 212 202 177 174 184 191 189 193 186 197 200 200 192 189 192 192 195 209 221 230 240 233 228 250 268 273 274 271 267 264 261 248 244
258 264 263 252 263 261 239 244 246 242 230 217 202 178 166 173 174 183 187 191 199 194 195 188 184 192 190 194 197 210 223 217 218 231 255 276 278 269 273 272 264 245 229 232
284 255 264 245 254 263 258 232 240 238 227 218 202 174 164 165 170 178 181 185 186 189 188 189 183 183 187 186 194 199 198 211 218 235 264 276 266 270 280 272 253 232 224 221
333 250 220 240 255 277 288 249 251 242 226 219 205 180 173 169 171 175 173 177 182 187 186 185 179 181 186 188 197 186 199 206 217 240 263 244 253 290 298 269 263 239 218 206
343 299 271 271 271 275 277 271 258 242 223 219 210 183 175 171 173 174 173 178 183 189 184 185 185 188 187 183 187 186 197 205 211 240 238 232 290 278 280 254 258 241 206 190
344 328 320 295 296 338 355 250 240 240 210 218 209 181 175 175 172 175 176 181 183 188 188 187 190 191 185 183 182 189 193 199 212 224 232 250 267 275 251 238 248 230 201 191
341 340 312 293 310 341 2 305 293 233 203 213 198 178 179 176 173 178 183 184 186 193 190 195 193 194 181 178 183 183 191 193 209 224 229 243 253 260 250 226 221 215 207 197
337 346 336 334 342 351 352 343 289 221 198 197 184 177 176 177 179 179 183 189 190 190 194 197 192 194 178 177 181 182 185 189 206 208 203 195 113 123 209 204 198 199 196 186
23 6 9 33 4 335 345 335 354 150 170 179 177 178 174 178 175 184 187 190 190 193 193 189 193 191 176 177 177 179 180 187 199 189 163 128 94 86 146 192 210 206 193 173
13 13 358 345 9 8 99 101 49 141 153 173 179 174 174 179 184 187 191 189 190 191 191 182 192 189 177 172 173 174 174 183 188 174 155 119 73 58 81 137 179 180 179 169
346 334 347 338 8 19 162 106 104 141 151 174 173 172 177 182 186 184 186 187 192 193 202 180 188 185 175 171 170 170 169 185 176 170 148 115 81 69 76 83 136 151 158 156
340 340 347 339 16 58 146 160 147 132 138 157 174 178 183 184 173 180 185 189 192 201 199 177 177 185 174 167 168 169 170 183 171 165 148 122 90 83 82 91 127 150 144 148